ECMWFFLT1_250_spd_228.txt.gz
Wind_Speed
106 106 105 105 105 106 107 108 109 110 112 114 116 118 120 122 123 125 126 127 129 131 133 135 138 141 143 144 144 145 145 145 145 145 144 144 144 144 144 144 144 144 144 145 145 146 145 146 146 145 144 144 144 144 143 142 141 141 141 141 141 141 140
106 106 106 106 106 105 106 107 108 109 111 113 116 118 120 122 124 125 126 127 128 130 132 134 136 139 142 144 145 146 146 147 147 147 147 147 146 146 146 146 146 146 146 146 147 147 147 147 147 146 145 145 145 146 146 145 144 144 143 143 142 142 142
106 106 105 105 105 105 105 105 107 109 110 112 114 117 119 122 124 126 127 128 128 129 130 132 134 137 140 142 145 146 148 148 149 149 149 149 149 149 149 149 149 148 148 148 149 149 150 150 149 148 148 147 148 149 149 149 148 148 147 147 146 145 145
104 103 103 104 104 104 104 104 105 107 109 111 113 115 118 120 123 125 127 128 128 129 130 131 132 134 137 140 142 145 147 149 150 151 151 152 152 152 152 152 152 151 151 151 152 152 153 153 153 152 152 151 151 152 152 152 152 152 151 151 151 150 149
102 102 102 103 103 103 103 104 105 106 109 111 113 114 116 118 120 123 125 127 128 129 129 130 131 132 134 137 139 142 145 147 149 151 152 153 154 154 154 154 154 154 154 154 155 155 156 156 156 156 156 155 155 155 156 156 155 155 155 155 154 154 153
101 102 102 102 102 103 103 104 105 106 108 110 112 113 115 116 118 120 122 125 127 128 129 129 130 131 132 134 136 138 141 144 147 150 152 153 155 155 156 156 156 156 156 156 156 157 158 159 159 159 159 159 158 158 158 158 158 158 157 157 157 157 156
100 101 101 101 101 102 103 104 105 106 108 110 111 113 114 115 116 118 120 122 124 126 127 128 129 130 131 132 134 136 138 141 144 147 149 151 153 155 156 157 157 157 157 157 158 158 159 159 160 160 161 160 160 160 160 160 160 160 160 159 159 159 158
99 100 100 101 101 102 103 104 105 106 107 109 111 112 113 114 115 117 118 120 122 123 125 126 128 129 130 131 133 134 136 138 140 143 146 148 150 153 155 156 157 158 158 158 159 159 159 160 160 161 161 161 161 161 161 161 161 161 161 161 161 161 160
99 100 100 100 101 102 103 104 105 106 107 109 110 112 113 114 114 116 117 119 120 121 123 124 126 128 129 131 132 133 134 136 138 140 143 145 147 149 151 153 155 156 157 158 159 159 160 160 161 161 162 162 162 162 162 162 162 162 162 162 162 162 162
99 100 100 101 101 102 103 104 106 107 108 109 110 111 112 113 114 116 117 118 119 120 121 123 124 126 128 129 131 132 133 135 136 138 140 142 144 146 148 150 152 153 154 156 157 158 159 160 161 161 162 162 163 163 163 163 163 162 162 162 163 163 162
98 99 100 100 100 101 102 104 105 106 108 109 109 110 111 113 114 116 117 118 118 119 120 121 123 125 126 128 129 131 132 134 135 137 138 140 141 143 145 146 148 150 151 153 154 155 157 158 159 160 161 162 162 163 163 163 163 163 163 163 163 163 163
97 98 99 99 100 100 101 103 104 106 107 108 109 109 110 112 114 116 117 118 118 119 120 121 122 123 125 126 128 130 131 132 134 135 136 138 139 140 142 143 145 146 148 150 151 152 154 155 156 157 159 159 160 161 161 162 162 162 162 162 162 163 163
97 97 98 99 99 100 100 102 103 105 106 108 108 108 109 111 114 115 117 117 118 119 120 121 122 123 124 125 127 128 129 131 132 134 135 136 137 138 140 141 143 144 145 147 148 149 150 151 153 154 155 156 157 157 158 159 160 160 161 161 161 161 162
96 97 97 98 99 100 100 101 103 104 105 107 108 107 108 110 113 115 116 117 118 119 120 121 122 123 123 124 126 127 128 130 131 132 133 134 136 137 138 140 141 142 143 144 145 146 148 149 150 151 152 153 153 154 154 155 156 157 158 159 159 159 159
95 96 97 98 99 100 100 101 102 103 104 105 106 106 108 109 112 114 116 117 118 119 120 121 121 122 123 124 125 126 127 129 130 131 132 133 134 135 137 138 139 140 141 142 143 144 145 147 148 149 149 150 150 151 152 153 153 154 155 155 155 155 155
95 95 96 97 98 99 100 100 101 102 102 103 104 104 106 108 110 112 114 116 117 118 119 120 121 121 122 123 125 126 127 128 129 129 130 131 133 134 135 136 137 138 139 140 141 142 143 144 146 147 147 148 148 149 149 150 150 151 151 151 151 151 152
93 93 94 95 96 97 98 99 100 100 101 101 101 101 103 105 108 110 112 114 116 117 118 119 119 120 121 122 124 125 126 127 128 128 129 130 131 132 133 134 135 137 138 139 140 141 142 142 143 144 145 145 145 146 146 147 147 147 148 148 147 148 148
91 91 92 92 93 94 95 96 97 98 99 99 99 98 99 101 104 107 109 111 113 114 116 117 118 119 120 121 122 123 125 126 126 127 127 128 129 130 132 133 134 135 136 137 138 138 139 140 141 141 142 142 143 143 144 144 144 144 144 144 144 144 144
90 90 90 91 92 92 93 94 95 97 98 98 98 98 97 98 101 103 105 106 108 110 112 114 116 117 118 119 120 122 123 124 125 124 124 125 127 129 131 132 132 133 134 135 136 136 137 138 138 139 140 140 141 141 142 142 142 142 142 142 141 141 141
88 90 91 91 92 92 93 93 94 95 96 98 99 99 97 97 99 101 102 103 105 106 108 110 112 114 116 117 119 120 121 123 123 122 121 123 125 127 128 129 130 131 132 133 134 135 136 136 137 137 138 138 139 139 140 140 140 140 140 140 139 139 138
87 89 90 91 91 92 92 93 94 95 95 96 97 98 98 98 99 101 102 102 104 104 105 107 109 110 112 114 116 118 120 121 121 121 120 122 123 124 125 125 126 127 129 130 131 132 134 134 135 136 136 136 137 137 138 138 138 138 138 137 137 137 136
84 86 88 89 90 91 91 92 93 94 95 95 96 96 96 97 98 99 100 102 103 104 105 106 107 108 110 112 113 115 117 119 120 120 120 121 121 122 122 122 123 124 125 126 127 128 129 131 132 133 133 134 135 135 136 136 136 136 135 135 134 134 134
82 84 85 87 88 89 90 90 91 93 93 94 94 94 95 95 95 96 97 99 100 102 104 105 106 107 108 110 112 113 115 116 117 118 119 119 119 119 120 120 121 121 122 123 124 125 126 127 128 129 130 131 131 132 132 133 133 133 133 133 132 131 131
81 82 84 85 87 88 89 89 91 92 93 93 93 94 94 94 94 94 95 95 97 98 100 101 103 104 106 108 110 111 113 114 114 115 116 116 116 117 117 117 118 119 120 121 122 123 124 125 126 126 127 128 128 129 129 129 130 130 130 130 130 129 129
80 81 82 83 85 86 87 88 90 91 92 92 92 93 94 94 94 94 94 94 95 96 97 98 99 101 103 105 107 108 110 111 111 112 113 113 114 114 114 115 115 116 117 118 119 120 121 122 123 124 124 124 125 126 126 127 127 127 127 127 127 127 126
80 80 81 82 82 84 85 87 88 89 90 90 90 91 92 92 93 93 93 94 94 95 96 96 98 99 101 102 103 104 106 107 108 109 110 111 112 112 112 112 112 113 113 114 115 116 117 118 119 120 121 121 121 122 122 123 123 123 123 124 124 123 123
79 79 80 80 81 82 84 86 88 88 88 88 88 89 90 90 91 92 92 92 93 94 95 95 96 98 99 99 100 101 103 104 106 107 108 108 109 109 109 110 110 110 110 110 111 112 113 114 116 117 117 117 118 118 119 120 120 120 120 120 120 120 120
78 78 79 79 80 82 83 85 87 87 87 87 86 87 87 88 89 90 90 91 92 93 93 94 95 96 96 97 98 100 101 102 103 104 105 106 106 107 107 107 108 108 108 108 109 109 110 111 112 113 113 114 114 115 116 117 117 117 117 117 118 117 117
77 77 78 79 79 81 82 84 85 87 87 86 86 86 86 86 87 88 89 90 91 92 91 91 93 94 95 96 97 97 99 100 100 102 103 103 104 104 105 105 106 106 107 107 107 107 108 108 109 110 110 111 111 112 113 114 114 114 114 115 115 115 114
77 77 78 79 79 81 82 83 85 86 87 87 86 86 85 86 86 87 88 89 90 90 90 90 92 93 94 94 95 95 96 97 98 99 100 101 101 102 102 103 103 104 104 105 105 105 106 106 107 107 108 108 109 109 110 111 112 112 112 112 112 112 112
76 77 78 79 80 81 82 83 84 86 87 87 87 86 86 87 87 88 88 89 90 90 90 91 92 93 93 94 94 95 95 95 96 97 98 98 99 99 100 100 101 102 102 103 103 104 104 104 105 105 105 106 106 107 108 109 109 110 110 110 110 110 110
76 77 78 79 80 81 82 83 83 84 85 86 86 86 86 86 87 87 88 89 89 90 90 91 92 92 93 93 94 94 95 95 96 96 97 97 98 98 98 98 99 99 100 100 101 102 102 103 103 103 103 103 104 104 105 106 107 107 107 108 108 107 107
76 76 77 78 78 79 80 81 82 82 82 83 83 84 84 84 84 85 85 86 87 87 88 89 89 90 91 91 92 93 93 94 94 95 95 96 97 97 97 97 97 97 98 98 99 100 100 101 101 101 101 101 102 102 103 104 105 106 106 106 105 105 105
74 74 75 76 77 77 78 79 80 80 80 80 81 81 81 82 82 82 82 83 83 84 84 85 86 86 87 88 88 89 90 91 91 92 93 94 94 95 96 96 95 95 95 96 96 97 98 98 99 98 98 98 99 99 100 101 102 103 103 103 103 103 104
71 72 73 74 75 76 77 78 78 78 78 78 78 79 79 80 81 81 81 81 81 81 82 82 82 83 84 84 85 86 87 87 88 88 89 90 91 92 93 93 93 93 93 93 93 94 95 96 96 96 96 96 96 97 97 98 99 99 100 100 100 100 100
70 69 70 71 73 75 77 77 77 77 77 77 77 77 78 79 79 80 79 79 79 79 80 80 80 81 81 81 82 83 83 84 84 85 86 87 87 88 89 89 90 90 89 90 90 91 92 92 93 94 94 94 94 95 95 96 96 96 96 96 96 96 97

ECMWFFLT1_250_spd_234.txt.gz
Wind_Speed
137 136 136 136 135 135 134 134 134 134 134 134 134 134 134 134 134 134 134 134 134 134 134 135 135 135 135 135 135 135 135 134 134 134 133 132 132 132 132 132 132 131 129 128 128 128 128 127 127 127 127 128 131 135 139 142 143 144 143 142 141 140 139
140 139 138 138 138 137 136 135 134 133 133 133 133 133 133 133 134 134 134 135 134 134 135 135 135 135 135 135 135 134 134 134 134 134 134 134 133 133 133 133 133 132 132 131 130 129 129 129 129 129 129 130 131 134 137 140 142 143 144 143 142 141 140
141 141 140 140 139 138 137 136 135 134 133 132 132 132 132 132 132 133 133 134 134 134 135 135 135 135 135 135 134 134 134 134 134 134 134 135 135 134 134 134 134 134 133 132 132 131 131 131 131 131 131 132 133 135 137 139 141 142 143 143 143 142 141
141 141 141 140 140 139 138 137 136 135 134 133 132 131 131 131 131 131 132 133 133 133 134 134 134 134 134 134 134 134 133 133 133 134 134 135 135 135 135 135 135 135 135 134 133 133 133 132 133 133 133 134 135 136 138 140 141 142 143 143 144 143 142
141 141 140 139 139 138 137 137 136 134 133 132 132 131 130 130 130 130 131 132 132 132 132 133 133 134 134 134 134 133 133 133 133 133 133 134 134 135 135 135 135 135 135 135 135 134 134 134 134 134 135 135 136 137 139 141 142 143 143 144 144 145 145
137 137 137 137 135 134 134 133 133 132 130 129 129 128 128 128 128 129 129 130 131 131 131 132 132 132 133 133 133 133 133 132 132 132 132 132 133 134 134 134 135 135 136 136 136 136 136 135 135 135 136 136 137 138 140 142 143 144 145 146 146 146 147
132 132 132 132 130 129 128 128 128 127 126 124 124 124 124 123 124 125 125 126 127 128 128 129 130 130 131 131 132 132 132 132 132 132 132 132 132 133 133 134 134 134 135 136 137 137 137 137 137 137 137 137 138 138 140 142 144 146 147 147 148 148 149
127 127 127 126 125 124 124 123 123 122 121 120 120 119 119 118 119 120 121 121 122 122 123 124 125 126 127 128 129 130 130 131 131 131 131 131 131 132 133 133 133 134 134 135 136 137 138 138 138 138 138 138 139 139 140 142 144 146 148 149 150 150 151
124 123 123 122 121 120 120 119 119 118 117 117 117 116 115 114 114 115 117 118 118 118 118 119 120 120 121 122 124 125 126 127 128 129 129 130 130 131 132 132 133 133 134 134 135 136 138 138 139 139 139 140 140 140 140 142 143 146 148 150 152 153 153
120 120 120 119 118 117 116 115 115 114 114 114 114 114 113 112 111 112 113 114 115 115 115 116 116 117 117 118 119 120 121 123 124 125 126 127 128 129 130 131 132 133 133 134 135 136 137 138 139 139 140 140 140 141 141 142 143 145 147 150 153 155 155
117 117 117 116 115 115 114 113 111 111 110 111 113 112 112 111 110 110 110 111 112 114 114 115 115 115 115 116 116 116 117 119 120 121 122 124 125 126 127 129 130 131 132 133 134 135 136 137 139 139 140 141 141 141 142 143 144 145 147 149 152 155 156
114 115 115 114 114 113 112 111 109 108 107 108 110 111 111 110 109 108 108 108 109 111 113 113 114 114 115 115 115 115 115 116 117 118 120 121 122 123 124 126 128 129 130 132 133 134 135 137 138 139 140 141 141 142 142 143 144 146 147 149 151 153 155
111 111 111 111 111 110 109 108 107 106 105 105 106 109 109 108 107 106 106 106 107 108 110 111 113 114 114 114 115 115 115 115 116 117 118 119 120 120 121 123 124 126 128 129 131 132 134 135 137 138 139 140 141 142 142 143 144 146 147 149 150 152 154
107 107 108 108 108 107 107 106 105 104 103 101 102 105 108 107 105 104 104 104 105 106 108 109 111 112 113 114 114 114 114 115 115 116 117 117 118 119 120 121 122 123 124 126 128 130 132 133 135 136 138 139 140 141 142 143 144 145 147 148 150 152 153
103 104 105 105 105 105 104 104 103 102 101 99 99 101 104 106 104 103 102 101 102 104 106 108 109 110 111 112 112 113 113 114 114 115 116 116 117 118 118 119 120 121 122 123 125 127 128 130 132 133 135 137 139 140 141 142 144 145 146 147 149 150 152
100 101 101 102 102 102 102 102 101 100 99 98 96 97 101 103 103 102 101 100 100 101 103 106 108 108 108 109 110 111 111 112 113 114 115 116 116 116 117 118 119 119 120 121 122 124 125 127 128 130 132 134 136 138 140 141 142 144 145 146 147 149 150
97 97 98 99 99 100 100 99 99 98 97 96 94 95 97 99 101 101 100 98 98 99 101 104 106 108 107 107 108 108 109 110 110 111 113 114 114 115 115 116 117 118 119 119 120 121 122 123 125 127 129 131 133 135 137 139 141 142 144 145 146 147 149
94 95 95 96 96 97 97 97 97 96 95 94 93 92 93 96 98 99 98 97 96 97 99 101 104 107 108 107 107 107 108 108 108 109 110 111 112 113 114 115 116 117 117 118 118 119 120 121 123 124 125 127 129 131 134 136 138 140 141 143 144 146 147
92 93 93 93 94 94 95 95 95 94 94 93 92 90 90 92 95 97 96 95 95 96 97 99 102 105 107 108 108 108 107 107 107 107 108 109 110 112 113 113 114 116 116 116 117 118 119 120 121 122 123 124 125 127 129 131 134 136 138 140 141 143 145
90 90 91 91 91 91 92 93 93 93 92 91 91 89 88 89 91 93 93 93 94 94 95 97 100 102 105 108 109 109 108 107 106 106 106 107 109 110 111 112 113 114 115 115 116 117 117 118 118 119 120 122 123 124 124 126 128 131 133 136 138 139 141
88 88 88 89 89 89 90 90 91 91 91 90 89 88 87 87 89 90 91 91 92 92 93 94 97 99 102 105 108 110 110 108 106 104 104 106 107 108 109 110 112 113 113 114 115 115 116 116 116 117 118 119 120 121 121 122 123 125 128 130 132 135 137
86 86 87 87 87 87 88 88 89 90 89 89 88 87 86 86 87 88 89 89 90 91 92 93 95 97 99 102 104 107 109 109 107 105 103 104 105 106 108 109 110 111 111 112 113 113 114 114 114 115 116 116 117 118 118 119 120 121 122 124 126 129 131
84 85 85 86 86 86 86 87 87 88 88 88 87 87 86 85 86 86 87 87 88 89 90 92 94 95 97 99 101 103 105 107 107 105 104 103 103 105 106 108 108 109 109 110 111 111 112 112 113 113 113 114 114 115 116 117 117 118 119 120 121 123 125
82 83 83 84 84 84 84 85 85 86 86 86 86 86 86 85 85 85 85 85 86 87 88 91 93 94 95 97 98 100 102 104 105 105 104 103 102 103 104 105 106 106 107 108 108 109 110 111 112 112 113 113 114 114 115 116 116 117 117 118 118 119 121
80 80 81 82 83 83 83 83 83 83 84 84 84 85 85 84 84 84 84 84 84 85 87 89 91 92 93 94 95 98 100 102 103 103 103 102 102 101 101 102 103 103 104 105 105 106 107 109 110 111 112 112 113 114 114 115 116 116 117 118 118 118 119
78 78 79 80 81 82 82 82 82 81 81 82 82 83 83 83 83 84 83 83 83 84 85 87 89 90 90 91 93 95 97 99 100 102 102 102 101 101 100 100 100 100 101 102 103 103 104 106 107 108 109 109 110 111 112 113 114 115 116 116 116 117 118
77 77 78 78 79 80 81 81 81 80 80 81 81 81 81 82 82 82 82 82 82 82 84 86 87 88 89 90 91 93 94 96 97 98 99 100 100 100 100 99 99 98 98 99 100 101 102 103 104 105 106 106 107 108 109 110 111 112 113 114 114 115 116
75 76 76 77 79 79 80 81 80 80 79 79 79 80 80 80 80 81 81 81 81 81 82 84 85 86 87 88 89 91 92 93 94 95 96 97 98 99 99 99 98 97 96 97 97 98 100 101 102 103 104 104 105 106 106 107 108 109 110 111 111 112 113
74 74 75 76 77 79 79 80 80 79 78 79 78 78 78 79 79 79 79 80 80 80 81 82 83 84 85 86 87 89 90 91 92 93 94 95 96 97 97 98 97 97 96 95 96 96 97 98 99 100 101 102 103 104 105 105 105 106 107 108 109 109 110
73 73 74 74 76 77 78 79 79 78 78 77 77 77 77 77 77 78 78 78 79 79 80 81 82 83 83 84 85 86 88 89 89 90 91 92 93 94 95 96 96 96 96 95 95 95 95 95 96 97 98 99 100 102 103 104 104 105 105 106 106 107 107
72 72 73 73 74 75 76 77 78 78 77 77 76 76 77 77 77 77 78 78 78 79 79 80 80 81 82 82 83 84 85 86 87 88 89 90 91 91 93 94 94 95 95 95 94 94 95 95 95 95 95 96 97 98 100 101 102 103 104 104 105 105 105
69 70 70 71 72 73 74 75 76 76 76 76 75 75 75 76 76 77 77 78 78 78 79 79 80 81 81 81 81 82 84 85 85 86 87 88 89 89 90 91 92 93 93 93 93 93 93 94 94 94 94 95 95 96 97 98 100 100 101 102 102 103 103
67 67 68 69 70 71 72 73 74 74 74 74 74 73 73 74 75 76 76 76 77 78 79 79 80 80 81 81 81 82 83 84 84 85 86 87 87 88 88 89 90 91 92 92 92 92 92 93 93 93 93 93 94 94 95 96 97 97 98 98 99 100 101
65 66 66 67 67 68 69 71 72 72 72 72 72 71 71 72 73 73 74 74 75 76 77 77 78 79 79 80 80 81 82 83 83 84 85 86 86 87 88 88 89 90 91 92 92 92 92 92 92 92 93 93 93 94 94 94 95 95 95 95 96 96 97
61 62 64 66 66 67 68 69 70 70 70 70 70 70 70 70 71 71 71 72 72 73 74 75 75 76 76 77 78 79 80 80 81 82 83 84 85 86 87 87 88 89 90 90 91 92 92 92 92 93 93 93 94 94 95 95 95 95 95 94 94 95 95
57 58 60 62 64 66 67 68 68 68 68 68 68 68 68 69 69 69 70 70 70 71 72 73 73 73 73 74 75 76 77 77 78 79 80 81 82 84 84 85 85 86 87 88 89 90 90 91 91 92 92 93 93 94 95 95 95 95 95 95 95 95 95

ECMWFFLT1_250_spd_240.txt.gz
Wind_Speed
154 154 154 154 154 153 153 153 152 152 152 152 152 152 151 151 151 150 150 150 150 150 149 149 149 149 149 149 149 150 150 150 149 148 148 148 147 147 147 147 146 144 143 141 141 140 139 138 138 137 136 135 135 134 133 132 131 129 128 128 128 128 127
155 155 155 155 155 155 154 154 154 154 153 153 153 153 153 152 152 152 152 152 152 152 151 151 151 150 150 149 149 150 150 150 149 148 148 148 148 148 148 147 146 145 144 143 142 141 141 140 139 139 138 137 136 135 135 134 133 132 130 129 129 129 129
156 156 155 155 155 155 155 154 154 154 154 154 153 153 153 153 153 152 152 152 153 153 153 153 153 152 152 151 151 151 151 151 150 150 149 149 149 149 149 148 148 147 146 145 144 143 142 141 141 140 139 139 138 137 136 135 134 133 132 131 130 129 129
155 155 155 155 154 154 154 154 154 153 153 153 153 153 153 152 152 152 152 151 151 152 152 153 153 153 152 152 152 152 152 151 151 150 150 150 150 150 150 149 149 148 147 146 145 144 143 142 141 140 140 139 139 138 137 136 135 134 133 132 131 130 130
153 153 153 153 153 153 153 152 152 152 152 152 151 151 151 151 151 151 150 150 150 149 150 150 151 151 151 151 151 151 151 151 150 150 149 149 149 149 149 149 149 149 148 147 146 144 143 142 141 140 139 139 139 138 137 137 136 136 135 134 133 132 131
147 147 147 147 148 148 148 148 149 149 149 149 149 149 149 149 149 148 148 148 147 147 147 147 147 147 147 147 148 148 149 149 149 149 148 148 147 147 147 148 148 148 147 147 146 144 143 142 141 140 140 139 139 138 138 138 138 137 137 136 135 135 134
141 141 141 141 141 142 142 143 143 143 144 144 144 145 145 145 145 145 145 145 145 144 144 144 145 144 144 144 145 145 146 146 147 147 147 146 145 145 145 145 145 146 146 145 144 143 142 141 141 140 140 140 139 139 139 139 139 138 138 138 137 137 136
135 136 136 136 136 136 137 137 138 139 139 140 140 141 142 143 143 143 143 143 143 143 143 143 143 143 143 144 144 145 146 146 146 146 146 146 145 145 144 144 144 144 144 143 143 142 141 140 140 140 140 140 139 139 139 139 139 139 138 138 138 138 138
128 129 129 129 129 130 130 131 131 132 133 134 134 136 137 138 139 139 140 140 140 140 141 141 141 142 142 142 143 144 146 146 147 147 147 147 147 146 145 145 144 144 143 143 142 141 141 140 140 140 140 140 140 139 139 139 139 139 139 139 139 139 139
122 122 122 122 122 122 123 123 124 124 125 126 126 128 130 131 132 133 133 134 135 135 135 135 136 137 137 138 139 140 142 143 144 145 145 146 146 146 145 145 145 144 144 144 143 142 142 141 141 141 141 141 141 141 141 140 140 140 140 140 140 139 139
116 116 116 117 117 117 117 117 117 118 119 119 120 121 123 124 125 126 126 127 128 128 129 129 130 130 131 131 133 134 135 136 137 138 139 140 141 142 141 141 141 141 140 141 141 140 140 139 139 139 140 140 141 141 141 141 140 140 140 140 140 140 140
110 111 111 111 112 112 112 112 112 113 113 114 114 115 116 119 120 120 120 121 121 122 122 123 124 124 125 126 127 128 129 130 131 132 133 134 135 135 135 135 134 134 134 134 134 134 134 134 133 134 134 135 136 137 137 137 137 137 137 138 138 138 138
106 106 107 107 107 107 107 107 107 108 108 109 109 109 110 113 116 116 115 115 116 116 117 118 119 119 120 120 121 122 123 124 125 126 127 128 129 129 129 129 128 128 128 128 128 128 128 127 127 127 128 129 130 131 131 131 132 132 132 132 133 133 133
102 103 103 103 104 104 104 104 104 104 104 104 105 104 104 108 112 112 111 110 111 111 112 112 113 114 115 115 116 117 118 119 120 120 121 122 123 124 123 123 123 123 123 122 122 122 122 122 122 122 123 123 125 126 126 126 127 127 127 127 128 128 129
99 99 100 100 100 101 101 101 101 101 101 101 101 101 100 103 107 108 107 107 107 107 107 107 108 109 110 111 112 112 113 114 115 115 116 117 118 118 118 118 118 118 117 117 117 118 118 118 118 118 118 119 120 121 122 122 123 123 124 124 124 125 125
95 96 97 97 97 98 98 98 98 98 98 98 98 98 98 100 104 105 105 106 106 104 104 104 104 106 106 107 108 109 109 110 110 111 112 112 113 113 113 113 113 113 113 113 113 113 114 113 113 113 113 114 115 116 117 118 119 120 120 120 120 121 122
92 93 94 94 94 94 95 95 95 95 95 96 95 95 95 97 100 103 104 104 104 103 102 102 102 102 104 104 105 106 106 107 107 107 108 108 108 109 109 109 109 109 109 109 108 108 109 109 108 109 109 110 111 112 113 114 115 116 117 117 117 118 119
89 90 91 92 92 92 92 93 93 92 92 93 93 93 93 94 97 99 101 102 103 102 101 101 100 100 101 102 103 104 104 104 104 104 104 105 105 106 106 106 106 106 106 105 104 104 104 105 105 105 106 106 107 108 109 110 111 113 114 115 115 116 117
86 87 88 89 89 89 90 90 90 90 89 90 90 90 90 91 93 96 98 99 101 101 100 99 98 98 98 100 101 101 101 101 101 101 101 102 103 104 104 104 104 104 104 103 101 101 101 102 102 103 103 103 104 105 106 106 108 110 112 113 113 114 114
84 85 85 86 86 87 87 87 88 87 87 86 87 87 87 88 90 92 94 95 98 99 98 97 96 96 96 97 98 99 99 99 99 98 98 100 101 101 101 101 102 103 102 100 100 99 99 99 99 100 100 101 102 102 103 104 106 108 109 111 112 112 113
82 82 83 83 84 84 84 84 85 85 85 84 84 84 85 86 88 89 90 92 94 95 96 95 94 94 94 94 95 96 97 97 97 96 97 99 99 99 99 100 101 101 99 98 98 98 98 97 97 98 98 99 99 100 101 103 105 106 107 108 110 111 112
79 80 80 81 82 82 82 82 82 83 83 82 81 82 82 83 85 86 88 89 90 92 93 93 93 93 92 92 92 93 94 94 94 94 95 96 96 96 97 98 99 98 98 97 97 97 97 96 96 96 96 96 97 98 100 101 103 104 105 106 108 109 110
78 78 78 79 79 80 80 80 80 81 81 80 80 80 80 81 83 84 85 86 88 89 90 91 91 92 91 91 90 90 91 91 91 92 93 93 94 94 95 96 96 96 96 96 96 96 96 96 95 95 95 95 95 97 98 100 101 102 103 104 106 107 108
76 77 77 77 78 78 78 79 79 79 79 79 78 78 78 79 80 82 83 84 85 86 87 88 89 90 90 89 89 89 89 89 89 89 90 91 91 92 93 93 94 94 94 95 95 96 95 95 95 94 94 94 94 95 96 97 99 100 101 102 104 105 107
74 75 75 75 76 76 77 77 77 77 77 77 77 77 76 76 78 79 80 81 83 84 85 86 87 88 88 88 87 87 88 87 87 87 88 88 89 89 90 91 92 92 93 93 94 94 94 95 95 94 94 93 93 94 95 96 97 98 99 100 102 103 105
71 72 72 73 74 75 75 75 75 75 75 75 76 76 75 75 76 77 78 79 80 81 82 84 86 87 87 87 87 87 87 87 86 86 86 87 87 87 88 89 90 90 91 92 92 93 93 94 94 94 94 93 93 93 94 95 95 96 97 99 100 101 102
68 69 69 70 71 72 72 73 73 72 73 73 74 74 74 74 75 76 76 77 78 79 80 82 84 85 86 86 86 86 86 86 86 86 85 86 86 86 86 86 87 88 89 90 90 91 92 93 93 94 94 93 93 93 94 94 94 95 96 97 98 99 100
66 66 66 67 68 69 69 70 70 70 70 71 72 72 72 73 73 74 75 75 76 77 78 80 81 83 84 84 85 85 86 86 86 86 85 85 85 85 85 85 86 86 86 87 88 89 90 91 91 92 93 94 94 93 93 93 94 94 95 95 96 97 98
64 64 64 65 65 66 67 67 67 67 67 68 69 70 70 71 71 72 73 73 74 74 76 77 79 80 81 82 83 84 84 85 85 85 85 85 84 84 84 85 85 85 85 86 86 87 88 89 90 91 92 93 93 93 93 93 93 93 94 94 95 96 97
63 63 62 63 63 63 64 65 65 64 64 65 66 67 68 68 69 69 70 70 71 72 74 75 76 77 78 79 80 81 82 83 84 85 85 84 84 84 84 84 84 85 85 85 86 87 87 87 88 89 90 91 92 93 93 93 93 93 93 93 93 94 95
59 60 61 62 62 62 62 62 63 63 63 62 63 64 65 66 67 67 68 68 68 70 72 73 74 75 76 76 77 79 80 81 82 83 84 84 84 84 83 84 84 84 84 85 85 86 86 87 87 88 89 90 91 92 93 93 93 93 93 92 92 93 94
56 57 58 59 60 61 60 60 60 60 60 60 60 61 62 63 64 65 66 66 66 68 70 71 72 73 73 74 75 76 77 78 79 80 81 82 82 83 83 83 83 84 84 85 85 85 85 86 87 87 88 89 90 91 91 92 92 92 92 92 92 92 93
53 54 55 56 57 58 59 59 58 57 56 56 57 58 59 61 62 63 63 63 64 66 68 70 70 70 71 72 73 74 74 75 76 78 79 80 81 81 81 81 82 82 84 84 84 84 84 85 86 86 87 88 89 90 90 91 92 92 92 91 91 91 91
50 51 52 53 53 54 56 57 56 55 54 54 54 55 57 59 60 61 60 61 62 64 65 67 68 69 70 70 71 72 72 73 74 75 76 77 78 79 79 79 80 80 82 83 84 84 84 84 84 85 86 86 87 88 89 90 91 91 91 91 91 91 91
45 46 48 49 50 51 52 53 54 54 54 53 52 52 54 55 57 57 58 58 59 61 63 64 65 66 67 68 68 69 70 71 72 72 73 75 76 77 78 78 78 78 79 81 82 82 83 83 83 83 84 85 86 87 87 88 89 89 90 90 90 90 90
42 43 44 45 46 47 49 50 51 52 52 52 51 51 51 52 53 54 55 56 57 58 60 62 63 63 64 65 66 67 68 69 69 70 71 72 73 75 76 76 76 77 77 78 79 80 80 80 81 81 82 82 83 85 86 86 87 88 88 89 89 89 89

ECMWFFLT1_250_spd_246.txt.gz
Wind_Speed
142 143 144 145 146 147 148 149 150 151 151 152 152 153 154 154 155 155 156 156 157 157 157 156 156 156 155 154 154 153 152 151 150 150 149 148 147 147 146 145 144 144 146 147 147 146 145 144 143 142 141 141 141 140 140 140 140 140 139 139 138 138 138
141 142 143 144 146 147 148 149 150 151 151 152 153 153 154 154 155 155 156 157 157 158 158 158 158 158 157 156 156 155 154 153 152 151 151 150 149 148 147 146 145 144 145 146 146 145 144 143 143 142 142 141 141 141 141 141 140 140 139 138 137 137 136
138 139 141 142 143 144 145 146 147 148 149 150 150 151 152 152 153 153 154 155 156 157 157 158 158 158 158 158 157 157 156 155 154 153 153 152 151 150 149 147 146 145 145 146 146 146 144 143 142 141 141 141 141 141 141 141 141 140 139 138 137 137 136
136 136 137 138 140 141 142 143 144 144 145 146 147 148 148 149 149 149 150 151 152 152 153 154 155 155 156 156 156 156 156 155 155 154 154 153 152 151 150 149 147 145 145 146 147 146 145 143 141 141 141 141 141 141 140 140 141 141 140 140 139 138 137
133 133 134 134 135 136 137 138 139 140 141 142 142 143 143 144 145 145 146 147 147 148 148 148 149 150 150 151 151 152 152 152 152 152 152 152 151 151 150 149 147 146 144 145 146 146 144 143 142 142 142 141 141 141 140 140 140 140 140 140 139 139 138
129 130 130 130 131 131 132 133 134 135 135 136 136 137 138 138 139 139 140 141 142 142 142 143 143 144 144 145 145 145 146 146 146 146 147 147 147 147 146 146 145 144 143 143 144 144 143 141 141 141 142 142 141 141 140 140 140 140 140 139 139 139 139
124 124 125 125 125 126 126 127 128 128 129 130 130 130 131 131 132 133 134 135 136 136 137 137 137 137 138 138 138 139 139 140 140 140 141 141 141 141 141 141 141 140 139 140 140 140 140 139 138 138 139 140 140 140 140 139 139 139 139 139 139 139 139
119 119 119 119 119 119 120 120 121 122 122 123 124 124 124 125 126 127 128 129 130 130 131 131 131 130 130 131 131 132 132 133 133 134 134 135 135 135 135 135 136 135 135 135 136 136 136 135 135 135 136 137 137 138 138 137 137 137 137 138 139 139 140
114 114 114 114 114 114 114 114 114 115 115 116 117 117 117 118 119 120 122 123 124 125 126 126 125 124 123 124 126 126 126 126 127 127 128 128 128 129 129 129 130 130 130 130 131 131 132 132 132 131 132 133 134 135 134 134 134 134 135 136 137 138 138
110 110 110 110 110 110 110 110 110 109 109 110 110 111 111 111 112 114 116 118 119 120 121 121 120 119 118 119 120 121 121 121 122 122 123 123 123 123 123 124 124 124 125 125 125 126 127 127 128 128 129 130 131 132 132 132 132 132 132 133 134 135 136
106 106 106 105 106 106 107 107 106 106 105 105 105 105 105 105 106 108 110 112 114 116 117 117 116 115 114 114 115 116 117 117 117 117 118 119 119 119 119 119 119 119 120 120 120 121 121 122 123 124 125 126 127 127 128 129 129 129 130 131 132 133 134
102 101 101 101 101 101 102 102 102 102 101 100 100 100 100 99 100 103 105 108 110 111 112 112 112 112 111 110 110 111 113 114 114 114 114 115 115 116 116 115 115 115 116 116 116 116 117 118 119 119 120 121 122 123 123 124 125 126 128 128 130 131 132
98 97 96 96 95 96 97 97 97 97 96 96 96 95 94 94 95 98 101 103 105 107 107 107 107 108 107 107 106 106 108 109 111 111 111 112 112 113 113 112 112 112 112 112 112 113 113 113 114 115 116 116 117 118 119 120 121 123 124 125 126 128 129
94 94 93 92 91 92 92 93 92 92 93 93 92 91 90 89 91 94 97 99 101 101 101 102 103 103 103 103 102 102 103 104 106 107 107 108 109 110 109 110 110 110 110 110 110 110 110 110 110 111 111 112 113 114 115 116 118 120 121 121 122 124 126
91 91 90 89 88 88 89 89 88 88 89 89 89 88 87 87 89 91 93 95 97 97 97 98 99 99 99 99 99 98 98 99 100 102 103 105 106 106 106 107 107 107 107 107 107 107 107 107 107 107 107 108 109 110 111 113 115 116 117 118 119 120 122
89 88 88 87 86 85 86 86 85 84 85 86 85 85 84 85 87 89 90 92 93 93 93 94 95 95 96 96 96 95 94 94 95 96 99 101 102 102 103 104 105 105 104 104 104 104 105 104 104 104 105 105 106 107 108 109 111 113 113 114 116 117 118
87 87 85 85 84 83 83 83 82 81 82 82 81 81 81 82 85 87 88 89 90 90 90 91 92 93 94 94 94 93 92 90 90 91 94 96 98 99 100 101 102 101 101 101 101 101 102 102 102 102 103 103 103 104 105 107 108 109 110 111 112 114 115
85 85 83 82 81 80 80 80 80 79 79 79 78 77 77 79 81 84 86 86 87 86 87 88 89 90 91 92 92 91 90 88 87 87 89 91 94 97 98 99 98 98 98 99 98 98 98 99 100 101 101 101 101 101 103 104 105 106 107 108 109 110 112
83 83 81 79 78 77 77 77 77 76 76 76 75 74 74 76 78 80 83 84 84 84 83 84 86 87 89 90 91 90 88 86 85 84 85 87 91 94 95 95 95 95 96 96 95 95 96 97 98 98 98 99 99 99 100 101 102 103 104 105 106 107 108
80 79 79 77 75 74 74 73 74 73 72 72 72 71 71 72 74 76 78 81 82 81 80 80 82 84 85 87 88 88 87 85 83 82 83 86 88 90 91 91 92 94 94 93 93 94 94 95 95 95 96 97 97 97 98 99 99 100 102 103 103 104 105
75 75 75 73 72 71 70 70 70 70 70 69 69 69 68 69 70 72 74 77 79 79 78 78 78 79 81 83 85 86 85 84 82 81 81 83 85 85 87 89 90 91 92 91 91 92 92 92 93 93 94 94 95 96 96 97 97 98 99 100 102 102 103
71 71 71 69 68 66 66 66 67 67 67 67 67 66 65 65 67 68 70 73 75 76 76 76 76 76 77 79 81 82 82 82 81 79 79 80 81 82 84 86 87 89 90 90 90 90 90 90 90 91 91 92 93 94 94 95 95 95 96 98 99 101 102
68 68 67 66 64 63 62 63 63 64 65 65 65 64 62 62 63 65 67 69 72 73 73 74 74 74 74 75 77 78 79 79 78 78 78 78 79 80 82 83 85 86 87 88 88 89 89 89 89 89 89 90 91 92 92 93 93 93 94 96 97 98 100
65 65 64 64 62 61 59 60 60 61 61 62 62 61 59 59 60 61 63 66 68 70 70 71 72 71 71 72 73 75 76 76 76 76 76 76 76 77 79 81 82 84 85 86 87 87 87 87 87 87 88 88 88 89 90 90 91 92 92 93 95 96 97
61 61 61 61 60 59 57 57 58 57 58 59 59 58 57 57 57 58 60 62 64 66 67 68 68 68 67 67 69 71 72 73 73 73 73 74 74 75 77 78 80 81 82 84 85 85 86 86 86 86 86 87 87 87 88 88 89 90 91 91 92 94 95
58 58 58 57 57 57 56 55 55 55 55 55 55 55 55 55 55 56 57 59 61 63 64 65 65 65 64 63 65 67 69 70 71 70 70 71 71 72 74 75 77 79 80 82 83 84 84 85 85 85 85 85 86 86 86 86 87 88 89 89 90 91 93
55 55 54 54 54 54 54 53 53 52 52 52 52 52 52 53 53 54 55 56 58 60 61 62 62 62 61 61 62 64 66 67 68 68 68 69 69 69 71 72 74 76 77 79 80 81 83 83 84 83 84 84 85 85 85 85 86 87 87 88 88 90 91
51 51 51 50 50 51 51 51 50 50 50 50 49 49 50 50 50 51 52 53 55 57 58 59 59 59 59 60 60 61 62 64 65 66 67 67 67 68 68 70 71 73 74 76 77 79 80 81 82 82 82 83 84 84 84 84 85 86 86 86 87 88 90
48 48 48 47 47 47 47 47 47 47 47 47 47 47 47 48 48 49 49 51 52 53 55 56 56 57 57 58 59 59 60 61 62 63 64 64 65 65 66 67 69 70 71 73 74 76 78 79 79 80 81 81 82 83 83 83 84 85 85 85 86 87 88
45 45 45 45 45 44 44 44 44 44 44 44 44 44 45 45 46 46 47 48 49 51 52 53 54 54 55 56 56 57 58 58 60 61 62 62 62 63 63 65 66 67 69 70 72 74 75 76 77 78 79 79 80 81 82 82 83 83 84 85 85 86 87
44 43 43 43 43 43 42 42 42 42 42 41 41 42 42 43 43 44 45 46 47 48 49 50 51 52 53 54 54 55 56 57 57 58 59 60 60 60 61 62 63 65 66 68 70 71 72 73 75 76 76 77 78 79 80 81 81 82 83 83 84 85 86
42 42 42 42 41 41 41 41 41 40 40 40 40 40 41 41 41 42 43 44 45 46 47 48 48 49 51 51 52 53 54 55 55 57 58 58 58 58 59 59 60 62 64 66 67 69 70 71 72 73 74 75 76 77 78 79 79 80 81 82 83 84 85
40 40 40 40 40 40 40 40 40 40 40 40 40 40 41 41 41 41 41 42 43 44 45 46 47 48 48 49 50 51 51 52 53 55 56 57 57 57 58 58 59 60 61 63 64 66 67 69 69 70 72 73 74 75 76 77 77 78 79 80 81 82 83
40 40 40 40 40 39 39 39 39 39 39 39 39 40 40 41 42 42 42 42 42 43 43 44 45 46 47 48 48 49 50 50 51 52 54 54 55 56 57 57 57 58 59 60 61 63 65 66 67 68 69 70 71 73 74 75 76 76 76 77 79 80 81
39 40 40 41 41 41 40 40 40 39 39 38 39 39 39 39 40 41 42 43 43 43 43 43 43 44 45 46 47 48 49 49 49 50 51 52 53 54 55 56 57 57 58 58 59 61 62 63 64 65 66 68 69 70 71 73 73 73 74 75 76 77 78
36 36 37 39 40 40 40 41 41 41 41 40 40 40 40 40 40 40 41 42 43 44 44 44 44 43 44 45 45 47 48 48 49 49 50 50 51 52 53 54 55 56 57 57 58 59 60 61 62 63 64 65 67 68 69 70 70 71 71 72 73 74 75